Miscellaneous Local Product
Issued by NWS North Platte, NE

Home | Current Version | Previous Version | Graphics & Text | Print | Product List | Glossary On
Versions: 1 2 3 4 5 6 7 8 9 10 11 12 13 14 15 16 17 18 19 20 21 22 23 24 25 26 27 28 29 30 31 32 33 34 35 36 37 38 39 40 41 42 43 44 45 46 47 48 49 50
829
AXUS43 KLBF 300710
MISLBF


WESTERN AND NORTH CENTRAL NEBRASKA HOURLY WEATHER ROUNDUP
NATIONAL WEATHER SERVICE NORTH PLATTE NE
200 AM CDT SAT JUL 30 2016

NOTE: "FAIR" INDICATES FEW OR NO CLOUDS BELOW 12,000 FEET WITH NO
SIGNIFICANT WEATHER AND/OR OBSTRUCTIONS TO VISIBILITY.

NOTE: STATIONS NOT REPORTING VARIABLES SUCH AS SKY/WEATHER OR
PRESSURE ARE PROVIDED BY RAWS AND APRS NETWORKS AND ARE NOT UNDER
NATIONAL WEATHER SERVICE QUALITY CONTROL.

...OBSERVATIONS IN AND NEAR THE EASTERN PANHANDLE OF NEBRASKA...

CITY           SKY/WX    TMP DP  RH WIND       PRES   REMARKS
PINE RIDGE     CLEAR     56  56 100 E5        30.02F
CHADRON        CLEAR     59  56  89 W3        30.01F
ALLIANCE       PTCLDY    58  56  93 CALM      30.05F
SIDNEY         CLOUDY    62  58  86 SW10      30.10F
CRESCENT LAKE    N/A     62  57  83 SW5G16      N/A
$$

...OBSERVATIONS IN NORTHERN NEBRASKA AND FAR SOUTHERN SOUTH DAKOTA...

CITY           SKY/WX    TMP DP  RH WIND       PRES   REMARKS
WINNER         CLOUDY    67  56  67 SE12      30.01F
VALENTINE      MOCLDY    66  61  84 S6        30.03S
THEDFORD       CLEAR     65  62  91 S6        30.06F
AINSWORTH      CLOUDY    67  60  80 SE12      30.04F
O`NEILL        PTCLDY    64  58  80 SE5       30.06S
ORD            PTCLDY    62  59  90 E3        30.03F
BROKEN BOW     PTCLDY    63  62  97 S3        30.05F
VALENTINE NWR    N/A     65  61  87 S7          N/A
BUTTE            N/A     63  57  82 SE8         N/A
HALSEY           N/A     65  61  87 SE6         N/A
EWING            N/A     61  59  92 CALM        N/A
$$

...OBSERVATIONS IN SOUTHWEST NEBRASKA AND FAR NORTHEAST COLORADO...

CITY           SKY/WX    TMP DP  RH WIND       PRES   REMARKS
WRAY           FAIR      66  61  82 S3        30.06S
HOLYOKE        FAIR      64  61  88 S3        30.05F
IMPERIAL       CLOUDY    65  61  87 CALM      30.06R
OGALLALA       CLOUDY    66  63  88 SE3       30.05F
NORTH PLATTE   CLOUDY    67  63  87 SE7       30.05S
MCCOOK         PTCLDY    68  63  84 E5        30.05R
LEXINGTON      MOCLDY    67  64  87 S7        30.05S
STAPLETON        N/A     64  62  92 CALM        N/A
GOTHENBURG       N/A     67  61  81 SE3         N/A
CALLAWAY         N/A     66  63  91 S9          N/A
$$

...OBSERVATIONS IN CENTRAL LINCOLN COUNTY AREA...

CITY           SKY/WX    TMP DP  RH WIND       PRES   REMARKS
N.P. AIRPORT   CLOUDY    67  63  87 SE7       30.05S
N.P. DOWNTOWN    N/A     68  64  85 CALM        N/A
N.P. HILLCREST   N/A     66  63  90 SE3         N/A
$$

...SOME OBSERVATIONS FROM AROUND THE REGION...

CITY           SKY/WX    TMP DP  RH WIND       PRES   REMARKS
DENVER         CLOUDY    69  60  73 S12       30.14R
LARAMIE        CLEAR     59  53  80 SE17      30.20F
CHEYENNE       CLOUDY    59  54  83 CALM      30.19F
SCOTTSBLUFF    CLOUDY    62  57  83 S3        30.05F
RAPID CITY     CLEAR     56  53  90 E3        29.99F
BISMARCK       RAIN      66  62  87 SE7       29.95F FOG
PIERRE         CLEAR     68  55  63 SE14      29.96F
SIOUX FALLS    CLEAR     59  55  87 CALM      30.05S
OMAHA          MOCLDY    66  61  84 CALM      30.03F
GRAND ISLAND   MOCLDY    65  59  81 SE3       30.05F
KANSAS CITY    CLEAR     66  60  81 NE6       30.02F
WICHITA        CLOUDY    73  69  87 S5        30.01F
OKLAHOMA CITY  PTCLDY    72  69  90 SE6       30.00S
DALLAS         PTCLDY    84  72  67 S10       29.97F
AMARILLO       LGT RAIN  65  60  84 SW13      30.13F
DODGE CITY     PTCLDY    71  66  84 S9        30.05F
HAYS           CLOUDY    70  61  73 E6        30.03F
GOODLAND       CLOUDY    67  61  81 S10       30.06F
$$




USA.gov is the U.S. government's official web portal to all federal, state and local government web resources and services.